Printer-friendly version

IAU Minor Planet Center

Minor Planet Center

MPEC 2004-G29 : 2004 GE2

The following Minor Planet Electronic Circular may be linked-to from your own Web pages, but must not otherwise be redistributed electronically.


Read MPEC 2004-G28 Read MPEC 2004-G30


M.P.E.C. 2004-G29                                Issued 2004 Apr. 13, 12:51 UT

     The Minor Planet Electronic Circulars contain information on unusual
         minor planets and routine data on comets.  They are published
   on behalf of Commission 20 of the International Astronomical Union by the
          Minor Planet Center, Smithsonian Astrophysical Observatory,
                          Cambridge, MA 02138, U.S.A.

         Supported in part by the Steven and Michele Kirsch Foundation
             Prepared using the Tamkin Foundation Computer Network

                              MPC@CFA.HARVARD.EDU
          URL http://cfa-www.harvard.edu/iau/mpc.html  ISSN 1523-6714

                                   2004 GE2

Observations:
     K04G02E* C2004 04 12.33094 15 03 36.47 -12 03 50.4          18.9   EG029644
     K04G02E  C2004 04 12.36127 15 03 43.35 -12 04 04.4          18.4   EG029644
     K04G02E  C2004 04 12.37148 15 03 45.34 -12 04 09.9          18.5 R EG029699
     K04G02E  C2004 04 12.38751 15 03 48.99 -12 04 17.6                 EG029699
     K04G02E  C2004 04 12.39852 15 03 51.81 -12 04 21.0          18.5   EG029644
     K04G02E  C2004 04 12.40354 15 03 52.68 -12 04 24.0                 EG029699
     K04G02E  C2004 04 12.41959 15 03 56.33 -12 04 31.3                 EG029699
     K04G02E  C2004 04 13.01425 15 06 32.16 -12 09 06.4          18.7 R EG029176
     K04G02E  C2004 04 13.01587 15 06 32.55 -12 09 07.4          18.6 R EG029176
     K04G02E  C2004 04 13.01910 15 06 33.33 -12 09 09.2          18.5 R EG029176
     K04G02E  C2004 04 13.02072 15 06 33.72 -12 09 10.1          18.1 R EG029176
     K04G02E  C2004 04 13.02190 15 06 33.99 -12 09 10.1          18.5 R EG029620
     K04G02E  C2004 04 13.02541 15 06 34.88 -12 09 12.2          18.5 R EG029620
     K04G02E  C2004 04 13.02891 15 06 35.77 -12 09 13.5          18.3 R EG029620
     K04G02E  C2004 04 13.03240 15 06 36.64 -12 09 15.6          18.4 R EG029620
     K04G02E  C2004 04 13.03592 15 06 37.54 -12 09 16.9          18.6 R EG029620
     K04G02E  C2004 04 13.03888 15 06 38.30 -12 09 18.5          18.6 R EG029620
     K04G02E  C2004 04 13.20753 15 07 27.31 -12 10 29.7          18.8 R EG029854
     K04G02E  C2004 04 13.21419 15 07 29.22 -12 10 30.6          18.9 R EG029854
     K04G02E  C2004 04 13.22083 15 07 30.91 -12 10 35.5          18.9 R EG029854
     K04G02E 5C2004 04 13.39653 15 08 17.99 -12 12 09.0          18.7 R EG029673
     K04G02E 5C2004 04 13.39780 15 08 18.33 -12 12 09.5                 EG029673
     K04G02E 5C2004 04 13.39919 15 08 18.71 -12 12 10.1                 EG029673
     K04G02E 5C2004 04 13.40081 15 08 19.13 -12 12 10.8                 EG029673
     K04G02E 3C2004 04 13.44889 15 08 31.63 -12 12 33.1          18.3 R EG029290
     K04G02E 3C2004 04 13.44995 15 08 31.91 -12 12 33.7          18.1 R EG029290
     K04G02E 3C2004 04 13.45142 15 08 32.30 -12 12 34.2          18.3 R EG029290
     K04G02E 3C2004 04 13.45231 15 08 32.56 -12 12 34.7          18.3 R EG029290
     K04G02E 3C2004 04 13.45319 15 08 32.79 -12 12 35.3          18.2 R EG029290

Observer details:
176 Observatori Astronomic de Consell.  Observers A. Lopez, R. Pacheco,
    J. Forteza.  0.41-m f/4 reflector + CCD.
290 Mt. Graham.  Observers W. Ryan, Q. Jamieson.  1.8-m f/9.0 reflector + CCD.
620 Observatorio Astronomico de Mallorca.  Observers S. Sanchez, R. Stoss,
    J. Nomen.  0.30-m f/9 Schmidt-Cassegrain + CCD.
644 Palomar Mountain/NEAT.  Observers S. Pravdo, D. MacDonald, K. Lawrence,
    M. Hicks.  1.2-m Schmidt + CCD.
673 Table Mountain Observatory, Wrightwood.  Observer J. Young.  0.6-m
    reflector + CCD.
699 Lowell Observatory-LONEOS.  Observer B. A. Skiff.  0.59-m LONEOS Schmidt
    + CCD.
854 Sabino Canyon Observatory, Tucson.  Observer J. E. McGaha.  0.356-m f/10.0
    Schmidt-Cassegrain + CCD.

Orbital elements:
2004 GE2                                                             PHA 0.005
Epoch 2004 Apr. 5.0 TT = JDT 2453100.5                  MPC
M 336.92358              (2000.0)            P               Q
n   0.34522209     Peri.  260.14439     +0.57535980     +0.81746738
a   2.0125051      Node    45.01501     -0.73489254     +0.53097530
e   0.7016493      Incl.    2.15624     -0.35901817     +0.22318672
P   2.85           H   21.6           G   0.15
From 28 observations 2004 Apr. 12-13.

Ephemeris:
2004 GE2                 a,e,i = 2.01, 0.70, 2                   q = 0.6004
Date    TT    R. A. (2000) Decl.     Delta      r     Elong.  Phase     V
2004 04 05    14 43.74   -11 25.4    0.258    1.236   153.1    21.5    20.2
2004 04 06    14 45.67   -11 29.3    0.245    1.225   153.6    21.3    20.0
2004 04 07    14 47.77   -11 33.5    0.231    1.213   154.1    21.1    19.9
2004 04 08    14 50.07   -11 38.0    0.218    1.202   154.5    21.0    19.7
2004 04 09    14 52.61   -11 43.0    0.205    1.190   154.8    21.0    19.6
2004 04 10    14 55.45   -11 48.3    0.191    1.178   155.1    21.0    19.4
2004 04 11    14 58.64   -11 54.3    0.178    1.167   155.2    21.1    19.2
2004 04 12    15 02.27   -12 00.9    0.165    1.155   155.3    21.3    19.0
2004 04 13    15 06.45   -12 08.2    0.152    1.143   155.2    21.6    18.9
2004 04 14    15 11.34   -12 16.6    0.140    1.131   155.0    22.0    18.7
2004 04 15    15 17.15   -12 26.1    0.127    1.119   154.5    22.7    18.4
2004 04 16    15 24.16   -12 37.0    0.114    1.107   153.8    23.6    18.2
2004 04 17    15 32.82   -12 49.5    0.102    1.096   152.6    24.9    18.0
2004 04 18    15 43.77   -13 03.9    0.090    1.084   150.9    26.8    17.8
2004 04 19    15 58.02   -13 20.1    0.078    1.072   148.4    29.5    17.5
2004 04 20    16 17.20   -13 37.2    0.067    1.060   144.6    33.3    17.2
2004 04 21    16 43.99   -13 51.9    0.056    1.048   139.1    38.9    17.0
2004 04 22    17 22.70   -13 53.9    0.046    1.036   130.7    47.4    16.8
2004 04 23    18 19.25   -13 16.0    0.038    1.024   117.9    60.2    16.7
2004 04 24    19 36.77   -11 08.3    0.034    1.012    99.8    78.3    17.0
2004 04 25    21 04.42   -07 12.2    0.033    1.000    78.8    99.3    17.8
2004 04 26    22 20.53   -02 51.5    0.038    0.988    60.4   117.7    19.1
2004 04 27    23 15.58   +00 32.0    0.045    0.976    47.2   130.8    20.6
2004 04 28    23 53.23   +02 50.8    0.055    0.964    38.5   139.4    22.0
2004 04 29    00 19.34   +04 24.5    0.066    0.953    32.8   145.0    23.2
2004 04 30    00 38.08   +05 29.6    0.077    0.941    29.1   148.7    24.1
2004 05 01    00 52.05   +06 16.7    0.089    0.929    26.5   151.0    24.8
2004 05 02    01 02.81   +06 52.1    0.101    0.917    24.8   152.6    25.4
2004 05 03    01 11.34   +07 19.8    0.114    0.905    23.6   153.5    25.8
2004 05 04    01 18.27   +07 42.0    0.126    0.894    22.9   154.0    26.1
2004 05 05    01 24.02   +08 00.3    0.139    0.882    22.4   154.2    26.3

Timothy B. Spahr             (C) Copyright 2004 MPC           M.P.E.C. 2004-G29

Read MPEC 2004-G28 Read MPEC 2004-G30


Our Web policy. Index to the CBAT/MPC/ICQ pages.


Valid HTML 4.01!